GW2637 Weather Reports


time (UTC)temp
C
wind
direction
speed
KPH
gust
KPH
rain 1hr
cm
rain 24hr
cm
rain mn
cm
humidity
%
barometer
mb
20260504081551 20 0 0.0 4.8 0.00 0.00 0.00 76 1015.2
20260504044556 21 360 0.0 4.8 0.00 0.00 0.00 74 1016.3
20260504043100 21 360 1.6 8.0 0.00 0.00 0.00 73 1016.1
20260504041549 22 0 0.0 8.0 0.00 0.00 0.00 73 1016.5
20260504040113 22 0 0.0 3.2 0.00 0.00 0.00 72 1016.6
20260504034551 22 0 0.0 6.4 0.00 0.00 0.00 71 1016.8
20260504033052 22 0 0.0 3.2 0.00 0.00 0.00 70 1016.8
20260504031559 22 0 0.0 1.6 0.00 0.00 0.00 70 1016.7
20260504030053 22 0 0.0 3.2 0.00 0.00 0.00 70 1016.6
20260504024552 22 0 0.0 4.8 0.00 0.00 0.00 70 1016.4
20260504023053 22 0 1.6 8.0 0.00 0.00 0.00 70 1016.2
20260504021550 22 0 0.0 3.2 0.00 0.00 0.00 70 1016.1
20260504020108 22 0 0.0 3.2 0.00 0.00 0.00 71 1015.9
20260504014554 22 0 0.0 4.8 0.00 0.00 0.00 71 1015.7
20260504013053 22 0 0.0 3.2 0.00 0.00 0.00 71 1015.3
20260504011553 22 26 0.0 1.6 0.00 0.00 0.00 71 1015.3
20260504010054 23 0 0.0 6.4 0.00 0.00 0.00 71 1015.0
20260504004550 23 0 0.0 4.8 0.00 0.00 0.00 71 1014.9
20260504003053 23 268 0.0 9.7 0.00 0.00 0.00 72 1014.7
20260504001555 23 250 1.6 8.0 0.00 0.00 0.00 72 1014.6
20260504000054 23 341 1.6 9.7 0.00 0.00 0.00 71 1014.4
20260503234612 23 314 3.2 12.9 0.00 0.00 0.00 72 1014.5
20260503233052 23 275 1.6 9.7 0.00 0.00 0.00 71 1014.4
20260503231553 23 290 3.2 11.3 0.00 0.00 0.00 70 1014.6
20260503230051 23 270 3.2 14.5 0.00 0.00 0.00 71 1014.6
20260503224553 24 360 3.2 9.7 0.00 0.03 0.00 70 1014.6
20260503223051 24 360 0.0 12.9 0.00 0.03 0.00 70 1014.6
20260503221606 24 338 4.8 9.7 0.00 0.03 0.00 69 1014.7
20260503220053 24 360 1.6 9.7 0.00 0.03 0.00 69 1014.7
20260503214552 24 17 3.2 12.9 0.00 0.15 0.00 70 1014.7
20260503213048 24 360 3.2 12.9 0.00 0.15 0.00 68 1014.7
20260503211549 24 360 1.6 8.0 0.00 0.15 0.00 68 1014.7
20260503210052 25 360 3.2 12.9 0.00 0.15 0.00 68 1014.7
20260503204550 25 360 3.2 14.5 0.00 0.23 0.00 66 1014.7
20260503203055 25 360 3.2 12.9 0.00 0.23 0.00 67 1014.7
20260503201551 25 360 3.2 8.0 0.00 0.23 0.00 66 1014.8
20260503200055 25 360 3.2 9.7 0.00 0.23 0.00 66 1015.2
20260503194559 25 360 3.2 9.7 0.00 0.41 0.00 65 1015.5
20260503193052 25 360 0.0 8.0 0.00 0.41 0.00 63 1015.6
20260503191554 25 0 0.0 6.4 0.00 0.41 0.00 59 1015.8
20260503190053 25 0 0.0 4.8 0.00 0.41 0.00 61 1016.2
20260503184549 25 0 0.0 4.8 0.00 1.47 0.00 60 1016.4
20260503183051 25 360 0.0 4.8 0.00 1.47 0.00 62 1016.6
20260503181551 25 0 0.0 3.2 0.00 1.47 0.00 62 1016.7
20260503180100 24 0 0.0 3.2 0.00 1.47 0.00 64 1017.0
20260503174559 23 0 0.0 4.8 0.00 1.47 0.00 64 1016.9
20260503173050 23 360 0.0 8.0 0.00 1.47 0.00 65 1016.9
20260503171552 24 109 0.0 6.4 0.00 1.47 0.00 63 1017.1